Location: Althorst
(53.6379°N, 10.7715°E)
Time: 12:43:35
(UTC+00:00)

Cosmos 1655 Rocket - Pass Details

Date: 10 December 2019
Orbit: 970 x 1006 km, 83.0° (Epoch: 24 January)

Event Time Altitude Azimuth Distance (km) Brightness Sun altitude
Rises 18:28:27 0° 191° (SSW) 3,700 7.2 -29.8°
Reaches altitude 10° 18:30:58 10° 193° (SSW) 2,750 6.4 -30.2°
Enters shadow 18:37:02 80° 241° (WSW) 1,008 4.0 -31.1°
